This is the latest recevied weather packets stored in our database for station/object K7LDN-13. If no packets are shown the sender has not sent any weather packets the latest 10 day(s).
| Time | Temp. | Humidity | Pressure | Rain* | Wind** | Luminosity | Snow |
|---|---|---|---|---|---|---|---|
| 1777833446 | 21.11° C | 21% | 1017.7 hPa | 0 mm | - | 704 W/m² | - |
| 1777833143 | 21.11° C | 22% | 1017.9 hPa | 0 mm | - | 492 W/m² | - |
| 1777832841 | 21.11° C | 21% | 1017.8 hPa | 0 mm | - | 587 W/m² | - |
| 1777832540 | 21.11° C | 20% | 1017.9 hPa | 0 mm | - | 565 W/m² | - |
| 1777832236 | 20.56° C | 21% | 1018.1 hPa | 0 mm | - | 773 W/m² | - |
| 1777831933 | 20.56° C | 22% | 1018.1 hPa | 0 mm | - | 663 W/m² | - |
| 1777831629 | 20.56° C | 22% | 1018.1 hPa | 0 mm | - | 664 W/m² | - |
| 1777831328 | 20° C | 21% | 1018 hPa | 0 mm | - | 407 W/m² | - |
| 1777831024 | 20° C | 22% | 1018 hPa | 0 mm | - | 352 W/m² | - |
| 1777830722 | 20.56° C | 22% | 1018.2 hPa | 0 mm | - | 328 W/m² | - |
| 1777830418 | 20.56° C | 22% | 1018.2 hPa | 0 mm | - | 553 W/m² | - |
| 1777830116 | 20.56° C | 22% | 1018.3 hPa | 0 mm | - | 575 W/m² | - |
| 1777829811 | 20.56° C | 24% | 1018.5 hPa | 0 mm | - | 436 W/m² | - |
| 1777829507 | 20.56° C | 24% | 1018.5 hPa | 0 mm | - | 728 W/m² | - |
| 1777829204 | 20.56° C | 24% | 1018.6 hPa | 0 mm | - | 653 W/m² | - |
| 1777828901 | 20.56° C | 24% | 1018.5 hPa | 0 mm | - | 808 W/m² | - |
| 1777828597 | 20.56° C | 24% | 1018.6 hPa | 0 mm | - | 778 W/m² | - |
| 1777828295 | 20.56° C | 25% | 1018.6 hPa | 0 mm | - | 725 W/m² | - |
| 1777827992 | 20° C | 25% | 1018.6 hPa | 0 mm | - | 745 W/m² | - |
| 1777827689 | 20° C | 25% | 1018.6 hPa | 0 mm | - | 726 W/m² | - |
| 1777827386 | 19.44° C | 26% | 1018.7 hPa | 0 mm | - | 660 W/m² | - |
| 1777827082 | 19.44° C | 26% | 1018.6 hPa | 0 mm | - | 628 W/m² | - |
| 1777826779 | 18.89° C | 25% | 1018.6 hPa | 0 mm | - | 587 W/m² | - |
| 1777826476 | 18.89° C | 25% | 1018.7 hPa | 0 mm | - | 534 W/m² | - |
| 1777826173 | 18.33° C | 24% | 1018.8 hPa | 0 mm | - | 435 W/m² | - |
* Rain latest hour (hover to see other rain measurements)
** Current wind speed in m/s (hover to see current wind gust speed)